Weather Roundup
Issued by NWS Chicago, IL

Home | Current Version | Previous Version | Text Only | Print | Product List | Glossary On
Versions: 1 2 3 4 5 6 7 8 9 10 11 12 13 14 15 16 17 18 19 20 21 22 23 24 25 26 27 28 29 30 31 32 33 34 35 36 37 38 39 40 41 42 43 44 45 46 47 48 49 50
000
NZUS59 KLOT 220809
HRRLOT

CHICAGO AREA WEATHER ROUNDUP
NATIONAL WEATHER SERVICE CHICAGO/ROMEOVILLE IL
300 AM CDT FRI SEP 22 2017

NOTE: "FAIR" INDICATES FEW OR NO CLOUDS BELOW 12,000 FEET WITH NO
SIGNIFICANT WEATHER AND/OR OBSTRUCTIONS TO VISIBILITY.

* THESE STATIONS ARE NOT UNDER NWS QUALITY CONTROL. THEY ALSO MAY NOT
  REPORT WEATHER SUCH AS PRECIPITATION OR FOG.

ILZ005-006-012>014-019>023-220900-
NORTHEAST ILLINOIS

CITY           SKY/WX    TMP DP  RH WIND       PRES   REMARKS
OHARE          CLOUDY    77  68  73 S5        30.03R
MIDWAY         MOCLDY    79  68  69 S7        30.03S HX  81
AURORA         PTCLDY    73  71  93 SE3       30.03S
LANSING*       PTCLDY    71  68  89 S5        30.05S
JOLIET*        PTCLDY    73  71  92 CALM      30.04R
WAUKEGAN       CLOUDY    71  71 100 CALM      30.02S FOG
DUPAGE AIRPORT CLOUDY    74  70  87 S3        30.03S
WHEELING       CLOUDY    76  71  85 SE3       30.03S
MORRIS*        CLOUDY    72  69  92 CALM      30.02S
LEWIS AIRPORT* CLOUDY    72  68  88 SE7       30.04S
NORTHERLY ISL    N/A     79  65  62 S8          N/A  HX  81
$$

WIZ051-052-058>065-066-070>072-220900-
SOUTHEAST WISCONSIN

CITY           SKY/WX    TMP DP  RH WIND       PRES   REMARKS
MILWAUKEE      CLEAR     69  67  93 S3        30.01F FOG
KENOSHA*       CLOUDY    72  69  90 CALM      30.03S FOG
RACINE*        CLOUDY    72  71  97 SE3       30.04S FOG
WAUKESHA       CLEAR     68  64  88 CALM      30.04S FOG
WEST BEND        N/A     63  63 100 CALM      30.03S FOG
$$

INZ001>003-010>013-019-020-220900-
NORTHWEST INDIANA

CITY           SKY/WX    TMP DP  RH WIND       PRES   REMARKS
GARY*          CLEAR     71  68  91 CALM      30.05S
MICHIGAN CITY* NOT AVBL
RENSSELAER*    NOT AVBL
VALPARAISO     CLEAR     69  68  96 CALM      30.06F FOG
$$

LMZ740>746-220900-
SOUTHERN LAKE MICHIGAN

STATION/POSITION TIME  SKY/WX   TEMP WIND        PRES    VSBY
                                AIR  DIR/SP/G
                 (UTC)          (F)  (DEG/KT/KT) (MB)    (MI)
HARRISON CRIB    0740            78  180/ 14/ 14   N/A
BURNHAM HARBOR   0800            79                N/A
CALUMET HARBOR   0742            78  180/  5/  7 1016.5S
BURNS HARBOR     0740            76  190/  7/  8 1017.9S
MICHIGAN CITY    0740            78  160/  8/ 10   N/A
$$

ABBREVIATIONS USED IN REMARKS
   TC - TEMPERATURE IN CELSIUS
  WCI - WIND CHILL INDEX
   HX - HEAT INDEX
  VSB - VISIBILITY
$$




USA.gov is the U.S. government's official web portal to all federal, state and local government web resources and services.